星链-5605 (STARLINK-5605 )

导读

STARLINK-5605是美国太空探索技术公司(SpaceX)旗下星链(Starlink)项目的一颗商用通信卫星,于北京时间2023年1月31日,由猎鹰9号火箭从美国西海岸范登堡空军基地发射升空。这颗卫星运行于近地轨道(LEO),质量约305千克,旨在为全球提供高速低延迟卫星互联网服务,是星链巨型星座组网计划的组成部分。

基本信息
目录编号:
55411
目录名称:
STARLINK-5605
国际标识:
2023-014W
轨道中心:
EARTH
卫星名称:
星链-5605
卫星全名:
星链-5605 (STARLINK-5605 )
卫星状态:
在轨 (已飞行1231 天)
发射日期:
2023-01-31 UTC
国别 :
美国 (US)
星等 :
--
轨道信息
数据来源 国际轨道数据 AOE轨道数据
星历时间 2026-06-15T02:40:38+0800
7小时前
查看轨道信息
2026-06-09T15:00:00+0800
5天前
查看轨道信息
半长轴 6950.195km 6950.198km
偏心率 0.0003436 0.0003551
轨道倾角 69.999° 69.999°
近地点辐角 268.772° 273.638°
升交点赤经 179.850° 193.681°
平近点角 91.305° 20.472°
近地点 569.669km 569.592km
远地点 574.447km 574.53km
周期 96.107分钟 96.107分钟
每日圈数 14.983295 14.983286
详细信息
固有亮度:
5
最大亮度:
2.5
卫星平台:
Starlink v1.5
覆盖范围:
全球
运营商:
太空探索技术公司
运营商所在国:
美国
制造商(研发单位):
太空探索技术公司
制造商所在国:
美国
使用方式:
暂无
卫星简介
星链(Starlink)计划是由太空探索技术公司(SpaceX)提出的一个巨型低轨卫星互联网星座项目,计划在2019年至2024年间在太空搭建由约1.2万颗卫星组成的“星链”网络,其中1584颗将部署在地球上空550千米处的近地轨道,并从2020年开始工作。该卫星仍在工作。
2D轨道图
3D轨道图
轨道高度分析图
轨道倾角分析图
轨道综合分析图
查看轨道综合分析图